| time (UTC) | temp F | wind direction | speed knots | gust knots | rain 1hr in | rain 24hr in | rain mn in | humidity % | barometer mb |
| 20260504004528 | 55 | 271 | 3.5 | 7.0 | 0.00 | 0.00 | 0.00 | 49 | 1011.4 |
| 20260504004008 | 55 | 303 | 2.6 | 7.0 | 0.00 | 0.00 | 0.00 | 49 | 1011.3 |
| 20260504003515 | 55 | 253 | 2.6 | 6.1 | 0.00 | 0.00 | 0.00 | 47 | 1011.4 |
| 20260504003033 | 56 | 252 | 2.6 | 7.0 | 0.00 | 0.00 | 0.00 | 47 | 1011.2 |
| 20260504002509 | 56 | 283 | 3.5 | 7.0 | 0.00 | 0.00 | 0.00 | 43 | 1011.1 |
| 20260504002013 | 56 | 281 | 2.6 | 6.1 | 0.00 | 0.00 | 0.00 | 45 | 1011.1 |
| 20260504001529 | 56 | 281 | 1.7 | 5.2 | 0.00 | 0.00 | 0.00 | 45 | 1011.0 |
| 20260504001011 | 56 | 278 | 1.7 | 5.2 | 0.00 | 0.00 | 0.00 | 45 | 1011.0 |
| 20260504000513 | 56 | 272 | 1.7 | 5.2 | 0.00 | 0.00 | 0.00 | 45 | 1011.0 |
| 20260504000031 | 57 | 257 | 1.7 | 6.1 | 0.00 | 0.00 | 0.00 | 44 | 1010.8 |
| 20260503235510 | 57 | 269 | 2.6 | 7.0 | 0.00 | 0.00 | 0.00 | 42 | 1010.8 |
| 20260503235010 | 57 | 294 | 2.6 | 7.0 | 0.00 | 0.00 | 0.00 | 40 | 1010.9 |
| 20260503234531 | 57 | 281 | 1.7 | 10.4 | 0.00 | 0.00 | 0.00 | 41 | 1010.7 |
| 20260503234007 | 58 | 325 | 1.7 | 10.4 | 0.00 | 0.00 | 0.00 | 41 | 1010.7 |
| 20260503233511 | 58 | 321 | 5.2 | 10.4 | 0.00 | 0.00 | 0.00 | 43 | 1010.6 |
| 20260503233035 | 58 | 319 | 4.3 | 10.4 | 0.00 | 0.00 | 0.00 | 40 | 1010.6 |
| 20260503232509 | 58 | 277 | 3.5 | 10.4 | 0.00 | 0.00 | 0.00 | 39 | 1010.6 |
| 20260503232010 | 58 | 313 | 4.3 | 11.3 | 0.00 | 0.00 | 0.00 | 39 | 1010.7 |
| 20260503231528 | 58 | 303 | 4.3 | 13.0 | 0.00 | 0.00 | 0.00 | 38 | 1010.6 |
| 20260503231011 | 58 | 240 | 7.0 | 13.0 | 0.00 | 0.00 | 0.00 | 37 | 1010.6 |
| 20260503230510 | 58 | 333 | 7.0 | 13.0 | 0.00 | 0.00 | 0.00 | 39 | 1010.5 |
| 20260503230029 | 59 | 308 | 7.0 | 13.0 | 0.00 | 0.00 | 0.00 | 43 | 1010.4 |
| 20260503225513 | 59 | 327 | 7.8 | 15.6 | 0.00 | 0.00 | 0.00 | 36 | 1010.3 |
| 20260503225011 | 59 | 304 | 7.0 | 18.2 | 0.00 | 0.00 | 0.00 | 36 | 1010.3 |
| 20260503224531 | 59 | 303 | 9.6 | 18.2 | 0.00 | 0.00 | 0.00 | 41 | 1010.3 |
| 20260503224016 | 59 | 314 | 3.5 | 12.2 | 0.00 | 0.00 | 0.00 | 38 | 1010.3 |
| 20260503223512 | 59 | 279 | 5.2 | 12.2 | 0.00 | 0.00 | 0.00 | 38 | 1010.2 |
| 20260503223032 | 59 | 281 | 3.5 | 12.2 | 0.00 | 0.00 | 0.00 | 35 | 1010.2 |
| 20260503222509 | 59 | 319 | 6.1 | 12.2 | 0.00 | 0.00 | 0.00 | 38 | 1010.2 |
| 20260503222011 | 59 | 262 | 5.2 | 12.2 | 0.00 | 0.00 | 0.00 | 35 | 1010.1 |
| 20260503221531 | 60 | 348 | 3.5 | 9.6 | 0.00 | 0.00 | 0.00 | 36 | 1010.2 |
| 20260503221010 | 59 | 324 | 4.3 | 13.9 | 0.00 | 0.00 | 0.00 | 39 | 1010.2 |
| 20260503220510 | 59 | 352 | 2.6 | 15.6 | 0.00 | 0.00 | 0.00 | 37 | 1010.2 |
| 20260503220028 | 59 | 306 | 10.4 | 15.6 | 0.00 | 0.00 | 0.00 | 39 | 1010.2 |
| 20260503215511 | 59 | 306 | 5.2 | 15.6 | 0.00 | 0.00 | 0.00 | 39 | 1010.3 |
| 20260503215016 | 59 | 337 | 7.0 | 20.9 | 0.00 | 0.00 | 0.00 | 39 | 1010.1 |
| 20260503214531 | 59 | 325 | 7.8 | 20.9 | 0.00 | 0.00 | 0.00 | 42 | 1010.1 |
| 20260503214010 | 59 | 315 | 12.2 | 20.9 | 0.00 | 0.00 | 0.00 | 40 | 1010.0 |
| 20260503213515 | 59 | 300 | 6.1 | 17.4 | 0.00 | 0.00 | 0.00 | 38 | 1010.0 |
| 20260503213039 | 59 | 296 | 4.3 | 17.4 | 0.00 | 0.00 | 0.00 | 38 | 1010.0 |
| 20260503212510 | 59 | 328 | 8.7 | 17.4 | 0.00 | 0.00 | 0.00 | 39 | 1010.1 |
| 20260503212012 | 59 | 308 | 4.3 | 14.8 | 0.00 | 0.00 | 0.00 | 41 | 1010.0 |
| 20260503211535 | 59 | 231 | 6.1 | 19.1 | 0.00 | 0.00 | 0.00 | 42 | 1009.9 |
| 20260503211010 | 58 | 321 | 10.4 | 19.1 | 0.00 | 0.00 | 0.00 | 43 | 1010.0 |
| 20260503210511 | 58 | 294 | 11.3 | 19.1 | 0.00 | 0.00 | 0.00 | 41 | 1010.0 |
| 20260503210034 | 59 | 232 | 4.3 | 20.0 | 0.00 | 0.00 | 0.00 | 37 | 1010.0 |
| 20260503205508 | 59 | 270 | 8.7 | 20.0 | 0.00 | 0.00 | 0.00 | 40 | 1010.0 |
| 20260503205015 | 59 | 269 | 4.3 | 18.2 | 0.00 | 0.00 | 0.00 | 39 | 1009.8 |
| 20260503204533 | 58 | 81 | 4.3 | 18.2 | 0.00 | 0.00 | 0.00 | 38 | 1009.9 |
| 20260503204013 | 59 | 305 | 7.0 | 18.2 | 0.00 | 0.00 | 0.00 | 39 | 1009.9 |
| 20260503203510 | 59 | 280 | 2.6 | 16.5 | 0.00 | 0.00 | 0.00 | 39 | 1009.9 |
| 20260503203030 | 58 | 303 | 10.4 | 20.9 | 0.00 | 0.00 | 0.00 | 42 | 1009.7 |
| 20260503202552 | 58 | 352 | 6.1 | 20.9 | 0.00 | 0.00 | 0.00 | 40 | 1009.9 |
| 20260503202013 | 58 | 306 | 12.2 | 20.9 | 0.00 | 0.00 | 0.00 | 45 | 1009.7 |
| 20260503201528 | 58 | 332 | 7.0 | 21.7 | 0.00 | 0.00 | 0.00 | 43 | 1009.7 |
| 20260503201011 | 57 | 286 | 10.4 | 21.7 | 0.00 | 0.00 | 0.00 | 42 | 1009.9 |
| 20260503200513 | 58 | 278 | 11.3 | 17.4 | 0.00 | 0.00 | 0.00 | 42 | 1010.1 |
| 20260503200032 | 58 | 306 | 3.5 | 17.4 | 0.00 | 0.00 | 0.00 | 41 | 1010.1 |
| 20260503195509 | 57 | 302 | 9.6 | 18.2 | 0.00 | 0.00 | 0.00 | 43 | 1010.2 |
| 20260503195015 | 56 | 0 | 9.6 | 24.3 | 0.00 | 0.00 | 0.00 | 47 | 1010.2 |
| 20260503194529 | 56 | 314 | 13.0 | 24.3 | 0.00 | 0.00 | 0.00 | 44 | 1010.0 |
| 20260503194010 | 57 | 312 | 8.7 | 16.5 | 0.00 | 0.00 | 0.00 | 45 | 1010.2 |
| 20260503193511 | 57 | 301 | 5.2 | 17.4 | 0.00 | 0.00 | 0.00 | 45 | 1010.3 |
| 20260503193032 | 57 | 344 | 10.4 | 17.4 | 0.00 | 0.00 | 0.00 | 45 | 1010.3 |
| 20260503192512 | 57 | 315 | 2.6 | 13.0 | 0.00 | 0.00 | 0.00 | 44 | 1010.4 |
| 20260503192008 | 57 | 304 | 3.5 | 15.6 | 0.00 | 0.00 | 0.00 | 44 | 1010.4 |
| 20260503191529 | 56 | 305 | 7.0 | 15.6 | 0.00 | 0.00 | 0.00 | 43 | 1010.3 |
| 20260503191008 | 56 | 288 | 3.5 | 20.0 | 0.00 | 0.00 | 0.00 | 46 | 1010.6 |
| 20260503190511 | 56 | 318 | 10.4 | 22.6 | 0.00 | 0.00 | 0.00 | 45 | 1010.5 |
| 20260503190042 | 55 | 348 | 13.9 | 22.6 | 0.00 | 0.00 | 0.00 | 47 | 1010.6 |
| 20260503185509 | 56 | 305 | 7.0 | 18.2 | 0.00 | 0.00 | 0.00 | 47 | 1010.6 |
| 20260503185008 | 56 | 5 | 5.2 | 18.2 | 0.00 | 0.00 | 0.00 | 44 | 1010.8 |
| 20260503184528 | 55 | 303 | 6.1 | 18.2 | 0.00 | 0.00 | 0.00 | 45 | 1010.6 |
| 20260503184012 | 55 | 284 | 7.8 | 17.4 | 0.00 | 0.00 | 0.00 | 44 | 1010.7 |
| 20260503183516 | 55 | 307 | 8.7 | 16.5 | 0.00 | 0.00 | 0.00 | 43 | 1010.6 |
| 20260503183030 | 55 | 307 | 7.0 | 16.5 | 0.00 | 0.00 | 0.00 | 47 | 1010.7 |
| 20260503182508 | 55 | 295 | 5.2 | 14.8 | 0.00 | 0.00 | 0.00 | 44 | 1010.8 |
| 20260503182012 | 55 | 22 | 5.2 | 20.0 | 0.00 | 0.00 | 0.00 | 46 | 1010.7 |
| 20260503181528 | 55 | 311 | 8.7 | 20.0 | 0.00 | 0.00 | 0.00 | 46 | 1010.8 |
| 20260503181009 | 55 | 271 | 6.1 | 19.1 | 0.00 | 0.00 | 0.00 | 46 | 1010.8 |
| 20260503180511 | 55 | 267 | 8.7 | 20.0 | 0.00 | 0.00 | 0.00 | 47 | 1010.9 |
| 20260503180038 | 55 | 317 | 6.1 | 20.0 | 0.00 | 0.00 | 0.00 | 48 | 1010.7 |
| 20260503175508 | 55 | 168 | 3.5 | 16.5 | 0.00 | 0.00 | 0.00 | 43 | 1010.8 |
| 20260503175011 | 54 | 277 | 6.1 | 16.5 | 0.00 | 0.00 | 0.00 | 49 | 1010.9 |
| 20260503174529 | 53 | 272 | 7.8 | 15.6 | 0.00 | 0.00 | 0.00 | 47 | 1010.8 |
| 20260503174008 | 54 | 209 | 5.2 | 18.2 | 0.00 | 0.00 | 0.00 | 45 | 1010.9 |
| 20260503173508 | 54 | 289 | 6.1 | 18.2 | 0.00 | 0.00 | 0.00 | 46 | 1011.0 |
| 20260503173031 | 54 | 285 | 6.1 | 18.2 | 0.00 | 0.00 | 0.00 | 46 | 1010.9 |
| 20260503172508 | 54 | 257 | 4.3 | 15.6 | 0.00 | 0.00 | 0.00 | 45 | 1010.8 |
| 20260503172013 | 54 | 328 | 5.2 | 10.4 | 0.00 | 0.00 | 0.00 | 44 | 1010.8 |
| 20260503171538 | 54 | 337 | 5.2 | 10.4 | 0.00 | 0.00 | 0.00 | 47 | 1010.9 |
| 20260503171008 | 53 | 308 | 7.0 | 20.0 | 0.00 | 0.00 | 0.00 | 48 | 1010.9 |
| 20260503170508 | 53 | 303 | 5.2 | 20.0 | 0.00 | 0.00 | 0.00 | 51 | 1011.1 |
| 20260503151012 | 52 | 320 | 2.6 | 13.9 | 0.00 | 0.00 | 0.00 | 51 | 1011.3 |
| 20260503150509 | 51 | 302 | 3.5 | 13.9 | 0.00 | 0.00 | 0.00 | 54 | 1011.4 |
| 20260503131009 | 49 | 342 | 2.6 | 12.2 | 0.00 | 0.00 | 0.00 | 60 | 1011.2 |
| 20260503130512 | 49 | 315 | 2.6 | 12.2 | 0.00 | 0.00 | 0.00 | 62 | 1011.3 |
| 20260503110510 | 47 | 0 | 1.7 | 8.7 | 0.00 | 0.00 | 0.00 | 60 | 1010.3 |
| 20260503090512 | 47 | 331 | 1.7 | 6.1 | 0.00 | 0.00 | 0.00 | 57 | 1008.7 |
| 20260503081538 | 48 | 334 | 0.9 | 3.5 | 0.00 | 0.00 | 0.00 | 57 | 1008.6 |
| 20260503081008 | 48 | 323 | 0.9 | 4.3 | 0.00 | 0.00 | 0.00 | 56 | 1008.6 |
| 20260503080512 | 49 | 308 | 0.0 | 4.3 | 0.00 | 0.00 | 0.00 | 56 | 1008.5 |
| 20260503072510 | 50 | 0 | 0.0 | 5.2 | 0.00 | 0.00 | 0.00 | 54 | 1008.6 |
| 20260503072013 | 50 | 0 | 0.0 | 5.2 | 0.00 | 0.00 | 0.00 | 55 | 1008.5 |
| 20260503071530 | 50 | 306 | 0.9 | 6.1 | 0.00 | 0.00 | 0.00 | 55 | 1008.7 |
| 20260503071010 | 50 | 355 | 0.9 | 6.1 | 0.00 | 0.00 | 0.00 | 55 | 1008.5 |
| 20260503070511 | 50 | 289 | 0.9 | 4.3 | 0.00 | 0.00 | 0.00 | 54 | 1008.5 |
| 20260503055012 | 52 | 338 | 0.9 | 4.3 | 0.00 | 0.00 | 0.00 | 56 | 1008.7 |
| 20260503054538 | 52 | 348 | 0.9 | 3.5 | 0.00 | 0.00 | 0.00 | 56 | 1008.9 |
| 20260503054010 | 52 | 325 | 0.9 | 4.3 | 0.00 | 0.00 | 0.00 | 56 | 1009.0 |
| 20260503053511 | 52 | 325 | 0.9 | 4.3 | 0.00 | 0.00 | 0.00 | 57 | 1009.1 |
| 20260503053030 | 51 | 322 | 1.7 | 4.3 | 0.00 | 0.00 | 0.00 | 55 | 1008.7 |
| 20260503052509 | 51 | 348 | 0.9 | 4.3 | 0.00 | 0.00 | 0.00 | 56 | 1008.7 |
| 20260503052013 | 52 | 331 | 0.9 | 2.6 | 0.00 | 0.00 | 0.00 | 56 | 1008.7 |
| 20260503051529 | 51 | 317 | 0.9 | 4.3 | 0.00 | 0.00 | 0.00 | 58 | 1008.9 |
| 20260503051009 | 51 | 295 | 1.7 | 4.3 | 0.00 | 0.00 | 0.00 | 58 | 1008.9 |
| 20260503050509 | 51 | 288 | 0.9 | 4.3 | 0.00 | 0.00 | 0.00 | 59 | 1008.8 |
| 20260503050028 | 51 | 329 | 0.9 | 3.5 | 0.00 | 0.00 | 0.00 | 59 | 1008.9 |
| 20260503045511 | 51 | 340 | 0.9 | 3.5 | 0.00 | 0.00 | 0.00 | 60 | 1009.1 |
| 20260503045013 | 51 | 0 | 0.9 | 3.5 | 0.00 | 0.00 | 0.00 | 63 | 1009.0 |
| 20260503044531 | 51 | 327 | 0.0 | 3.5 | 0.00 | 0.00 | 0.00 | 64 | 1009.3 |
| 20260503044011 | 51 | 333 | 0.9 | 3.5 | 0.00 | 0.00 | 0.00 | 65 | 1009.4 |
| 20260503043510 | 51 | 287 | 0.9 | 3.5 | 0.00 | 0.00 | 0.00 | 64 | 1009.5 |
| 20260503043028 | 51 | 270 | 0.9 | 3.5 | 0.00 | 0.00 | 0.00 | 66 | 1009.7 |
| 20260503042510 | 51 | 313 | 1.7 | 3.5 | 0.00 | 0.00 | 0.00 | 66 | 1009.7 |
| 20260503042016 | 51 | 303 | 0.9 | 3.5 | 0.00 | 0.00 | 0.00 | 67 | 1009.6 |
| 20260503041528 | 51 | 317 | 0.9 | 2.6 | 0.00 | 0.00 | 0.00 | 67 | 1009.7 |
| 20260503041011 | 51 | 320 | 0.0 | 3.5 | 0.00 | 0.00 | 0.00 | 68 | 1009.6 |
| 20260503040514 | 52 | 305 | 0.9 | 3.5 | 0.00 | 0.00 | 0.00 | 68 | 1009.6 |
| 20260503040028 | 52 | 313 | 0.9 | 3.5 | 0.00 | 0.00 | 0.00 | 69 | 1009.5 |
| 20260503035509 | 52 | 336 | 0.0 | 2.6 | 0.00 | 0.00 | 0.00 | 69 | 1009.4 |
| 20260503035011 | 52 | 313 | 0.0 | 2.6 | 0.00 | 0.00 | 0.00 | 68 | 1009.5 |
| 20260503034528 | 52 | 0 | 0.9 | 2.6 | 0.00 | 0.00 | 0.00 | 69 | 1009.4 |
| 20260503034010 | 52 | 325 | 0.0 | 2.6 | 0.00 | 0.00 | 0.00 | 70 | 1009.5 |
| 20260503033510 | 52 | 0 | 0.0 | 2.6 | 0.00 | 0.00 | 0.00 | 69 | 1009.7 |
| 20260503033041 | 52 | 313 | 0.9 | 2.6 | 0.00 | 0.00 | 0.00 | 69 | 1009.5 |
| 20260503032511 | 52 | 0 | 0.0 | 2.6 | 0.00 | 0.00 | 0.00 | 70 | 1009.5 |
| 20260503032014 | 52 | 327 | 0.0 | 2.6 | 0.00 | 0.00 | 0.00 | 71 | 1009.7 |
| 20260503031530 | 52 | 311 | 0.9 | 2.6 | 0.00 | 0.00 | 0.00 | 71 | 1009.7 |
| 20260503031008 | 52 | 313 | 0.0 | 1.7 | 0.00 | 0.00 | 0.00 | 73 | 1009.4 |
| 20260503030507 | 52 | 307 | 0.0 | 1.7 | 0.00 | 0.00 | 0.00 | 73 | 1009.5 |
| 20260503030034 | 52 | 315 | 0.9 | 2.6 | 0.00 | 0.00 | 0.00 | 75 | 1009.7 |
| 20260503025507 | 52 | 323 | 0.0 | 2.6 | 0.00 | 0.00 | 0.00 | 77 | 1009.4 |
| 20260503025007 | 52 | 0 | 0.0 | 2.6 | 0.00 | 0.00 | 0.00 | 78 | 1009.3 |
| 20260503024532 | 51 | 326 | 0.9 | 2.6 | 0.00 | 0.00 | 0.00 | 79 | 1009.4 |
| 20260503024011 | 51 | 0 | 0.0 | 1.7 | 0.00 | 0.00 | 0.00 | 81 | 1009.3 |
| 20260503023511 | 51 | 301 | 0.0 | 3.5 | 0.00 | 0.00 | 0.00 | 83 | 1009.3 |
| 20260503023028 | 51 | 0 | 0.0 | 3.5 | 0.00 | 0.00 | 0.00 | 83 | 1009.5 |
| 20260503022509 | 51 | 313 | 0.9 | 3.5 | 0.00 | 0.00 | 0.00 | 83 | 1009.6 |
| 20260503022011 | 51 | 289 | 0.9 | 3.5 | 0.00 | 0.00 | 0.00 | 83 | 1009.7 |
| 20260503021530 | 51 | 269 | 0.9 | 3.5 | 0.00 | 0.00 | 0.00 | 84 | 1009.7 |
| 20260503021011 | 51 | 253 | 0.9 | 4.3 | 0.00 | 0.00 | 0.00 | 84 | 1009.8 |
| 20260503020511 | 51 | 313 | 1.7 | 4.3 | 0.00 | 0.00 | 0.00 | 84 | 1009.7 |
| 20260503020028 | 51 | 307 | 0.9 | 2.6 | 0.00 | 0.00 | 0.00 | 83 | 1009.4 |
| 20260503015512 | 52 | 319 | 0.9 | 2.6 | 0.00 | 0.00 | 0.00 | 83 | 1009.6 |
| 20260503015008 | 52 | 319 | 0.9 | 3.5 | 0.00 | 0.00 | 0.00 | 83 | 1009.7 |
| 20260503014541 | 52 | 281 | 1.7 | 3.5 | 0.00 | 0.00 | 0.00 | 83 | 1009.7 |
| 20260503014011 | 52 | 0 | 0.9 | 4.3 | 0.00 | 0.00 | 0.00 | 82 | 1009.9 |
| 20260503013508 | 52 | 268 | 1.7 | 5.2 | 0.00 | 0.00 | 0.00 | 82 | 1009.9 |
| 20260503013034 | 52 | 0 | 0.9 | 5.2 | 0.00 | 0.00 | 0.00 | 82 | 1009.7 |
| 20260503012508 | 52 | 298 | 0.9 | 4.3 | 0.00 | 0.00 | 0.00 | 82 | 1009.8 |
| 20260503012015 | 52 | 281 | 1.7 | 4.3 | 0.00 | 0.00 | 0.00 | 82 | 1009.8 |
| 20260503011534 | 53 | 265 | 0.9 | 6.1 | 0.00 | 0.00 | 0.00 | 82 | 1009.8 |
| 20260503011009 | 53 | 275 | 1.7 | 6.1 | 0.00 | 0.00 | 0.00 | 82 | 1009.7 |
| 20260503010511 | 53 | 244 | 1.7 | 4.3 | 0.00 | 0.00 | 0.00 | 83 | 1009.7 |
| 20260503010038 | 52 | 265 | 0.9 | 4.3 | 0.00 | 0.00 | 0.00 | 83 | 1009.5 |
| 20260503005511 | 52 | 245 | 0.9 | 3.5 | 0.00 | 0.00 | 0.00 | 82 | 1009.5 |
| 20260503005011 | 52 | 207 | 1.7 | 3.5 | 0.00 | 0.00 | 0.00 | 82 | 1009.6 |